Regional Weather Roundup
Issued by NWS

Home | Current Version | Previous Version | Graphics & Text | Print | Product List | Glossary On
Versions: 1 2 3 4 5 6 7 8 9 10 11 12 13 14 15 16 17 18 19 20 21 22 23 24 25 26 27 28 29 30 31 32 33 34 35 36 37 38 39 40 41 42 43 44 45 46 47 48 49 50
000
ASUS43 KIND 201159
RWRIN

WEATHER ROUNDUP FOR INDIANA
NATIONAL WEATHER SERVICE INDIANAPOLIS IN
700 AM EST THU NOV 20 2014

NOTE: "FAIR" INDICATES FEW OR NO CLOUDS BELOW 12,000 FEET WITH NO
SIGNIFICANT WEATHER AND/OR OBSTRUCTIONS TO VISIBILITY.

* - STATION DOES NOT REPORT WEATHER SUCH AS PRECIPITATION OR FOG.

+ - STATION NOT QUALITY CONTROLLED BY THE NATIONAL WEATHER SERVICE.
    USE DATA WITH CAUTION...ESPECIALLY DEWPOINT AND RELATIVE
    HUMIDITY OBSERVATIONS.

INZ001>003-010>013-019-020-201300-
NORTHWEST INDIANA

CITY           SKY/WX    TMP DP  RH WIND       PRES   REMARKS
GARY /AIRPORT/ CLEAR     21  12  68 W14G25    30.03R WCI   8
KNOX *+        FAIR      19  13  78 W12G17    30.02R WCI   6
MONTICELLO +   CLEAR     18  12  77 W8        30.06R WCI   8
VALPARAISO     NOT AVBL

$$

LMZ046-743>745-201300-
SOUTHERN LAKE MICHIGAN

STATION/POSITION TIME  TEMP WIND        PRES
                       AIR  DIR/SP/G
                 (UTC) (F)  (DEG/KT/KT) (MB)
MICHIGAN CITY    1100   24  240/ 28/ 34   N/A

$$

INZ004-005-014>016-021>024-201300-
NORTH CENTRAL INDIANA

CITY           SKY/WX    TMP DP  RH WIND       PRES   REMARKS
ELKHART        CLOUDY    21  12  68 SW12G17   29.97  WCI   9
GOSHEN         CLEAR     19  12  74 SW15      29.98R WCI   5
6HR MIN TEMP:  19; 6HR MAX TEMP:  23;

SOUTH BEND     CLOUDY    20  13  74 SW16      29.98R WCI   6
6HR MIN TEMP:  20; 6HR MAX TEMP:  25; 6HR PCP: TRACE;


$$

INZ006>009-017-018-025>027-201300-
NORTHEAST INDIANA

CITY           SKY/WX    TMP DP  RH WIND       PRES   REMARKS
ANGOLA *+      CLOUDY    19  12  73 SW12      29.93S WCI   7
FORT WAYNE     CLEAR     19  12  74 SW14      30.02R WCI   6
6HR MIN TEMP:  19; 6HR MAX TEMP:  23; 6HR PCP: TRACE;


$$

INZ028-029-035-036-043>045-051>053-201300-
WEST CENTRAL INDIANA

CITY           SKY/WX    TMP DP  RH WIND       PRES   REMARKS
GREENCASTLE +  CLEAR     19  12  73 W5        30.12R WCI  13
LAFAYETTE      CLEAR     19  12  74 W8        30.09R WCI   9
6HR MIN TEMP:  18; 6HR MAX TEMP:  24;

TERRE HAUTE    CLEAR     19  13  77 W6        30.16R WCI  11
6HR MIN TEMP:  19; 6HR MAX TEMP:  25;


$$

INZ030>032-037>040-046>048-054>057-064-065-201300-
CENTRAL INDIANA

CITY           SKY/WX    TMP DP  RH WIND       PRES   REMARKS
COLUMBUS       CLEAR     19  14  79 SW7       30.14  WCI  10
INDIANAPOLIS   CLEAR     18  11  74 SW12      30.10R WCI   5
6HR MIN TEMP:  17; 6HR MAX TEMP:  24; 6HR PCP: TRACE;

-EAGLE CREEK   CLEAR     19  11  70 SW7       30.10R WCI  10
6HR MIN TEMP:  18; 6HR MAX TEMP:  24;

KOKOMO *+      CLEAR     18  10  73 W13       30.06S WCI   4
MT COMFORT *+  CLEAR     19   7  58 W10       30.10R WCI   8
SHELBYVILLE    FAIR      20  11  68 SW7       30.11R WCI  11
6HR MIN TEMP:  19; 6HR MAX TEMP:  26;


$$

INZ033-034-041-042-049-050-058-059-201300-
EAST CENTRAL INDIANA

CITY           SKY/WX    TMP DP  RH WIND       PRES   REMARKS
MUNCIE         CLEAR     20  12  71 W9        30.06R WCI   9
6HR MIN TEMP:  20; 6HR MAX TEMP:  23;


$$

INZ060-061-067>069-081>083-085>088-201300-
SOUTHWEST INDIANA

CITY           SKY/WX    TMP DP  RH WIND       PRES   REMARKS
EVANSVILLE     CLEAR     23  16  74 W5        30.22R WCI  17
6HR MIN TEMP:  22; 6HR MAX TEMP:  29;

HUNTINGBURG *+ MOCLDY    19  12  73 W5        30.20R WCI  13
6HR MIN TEMP:  19; 6HR MAX TEMP:  28;


$$

INZ062-063-066-070>080-084-089>092-201300-
SOUTH CENTRAL AND SOUTHEAST INDIANA

CITY           SKY/WX    TMP DP  RH WIND       PRES   REMARKS
BLOOMINGTON    CLEAR     20  12  71 W6        30.14R WCI  12
6HR MIN TEMP:  18; 6HR MAX TEMP:  25;


$$




USA.gov is the U.S. government's official web portal to all federal, state and local government web resources and services.